Weather History for KOPM - November, 2012

Change the Weather History Date:

Thursday, November 8, 2012

  Actual Average Record
Temperature  
Mean Temperature 78 °F -  
Max Temperature 78 °F - - ()
Min Temperature 77 °F - - ()
Cooling Degree Days 12    
Growing Degree Days 28 (Base 50)    
Moisture  
Dew Point 63 °F    
Average Humidity 60    
Maximum Humidity 65    
Minimum Humidity 54    
Precipitation  
Precipitation 0.00 in - - ()
Sea Level Pressure  
Sea Level Pressure 30.09 in    
Wind  
Wind Speed 19 mph (SE)    
Max Wind Speed 25 mph    
Max Gust Speed 25 mph    
Visibility 10 miles    
Events      
T = Trace of Precipitation, MM = Missing Value Source: NWS Daily Summary

Daily Weather History Graph

Daily Weather History Graph

Search for Another Location

Airport or City:

Trip Planner

Search our weather history database for the weather conditions in past years. The results will help you decide how hot, cold, wet, or windy it might be!

Date:

Astronomy

Nov. 08, 2012 Rise Set
Actual Time 6:42 AM CST 5:40 PM CST
Civil Twilight 6:18 AM CST 6:04 PM CST
Nautical Twilight 5:50 AM CST 6:32 PM CST
Astronomical Twilight 5:23 AM CST 6:59 PM CST
Moon 1:10 AM CST (11/8) 1:53 PM CST (11/8)
Length of Visible Light 11h 45m
Length of Day
10h 57m
Waning Crescent, 32% of the Moon is Illuminated
Nov 8
Waning Crescent
Nov 13
New
Nov 20
First Quarter
Nov 28
Full
Dec 6
Last Quarter

Hourly Weather History & Observations

Time (CST) Temp. Dew Point Humidity Pressure Visibility Wind Dir Wind Speed Gust Speed Precip Events Conditions
12:15 AM 77.0 °F 60.8 °F 57% 30.10 in 10.0 mi SE 17.3 mph - N/A   Clear
12:35 AM 77.0 °F 59.0 °F 54% 30.10 in 10.0 mi SE 17.3 mph - N/A   Clear
1:15 AM 77.0 °F 60.8 °F 57% 30.10 in 10.0 mi SE 16.1 mph - N/A   Clear
1:35 AM 77.0 °F 60.8 °F 57% 30.09 in 10.0 mi SE 16.1 mph - N/A   Clear
1:55 AM 77.0 °F 60.8 °F 57% 30.09 in 10.0 mi SE 16.1 mph - N/A   Clear
2:15 AM 77.0 °F 60.8 °F 57% 30.09 in 10.0 mi SE 16.1 mph - N/A   Clear
2:35 AM 77.0 °F 60.8 °F 57% 30.09 in 10.0 mi SSE 16.1 mph - N/A   Clear
2:55 AM 77.0 °F 60.8 °F 57% 30.09 in 10.0 mi SSE 17.3 mph - N/A   Clear
3:15 AM 77.0 °F 62.6 °F 61% 30.08 in 10.0 mi SE 17.3 mph - N/A   Clear
3:35 AM 77.0 °F 62.6 °F 61% 30.08 in 10.0 mi SSE 17.3 mph - N/A   Clear
3:55 AM 77.0 °F 62.6 °F 61% 30.08 in 10.0 mi SSE 17.3 mph - N/A   Clear
4:15 AM 77.0 °F 62.6 °F 61% 30.08 in 10.0 mi SSE 18.4 mph - N/A   Clear
4:35 AM 77.0 °F 64.4 °F 65% 30.08 in 10.0 mi SSE 18.4 mph - N/A   Clear
4:55 AM 77.0 °F 62.6 °F 61% 30.08 in 10.0 mi SSE 17.3 mph - N/A   Clear
5:15 AM 77.0 °F 62.6 °F 61% 30.08 in 10.0 mi SSE 18.4 mph - N/A   Clear
5:55 AM 77.0 °F 62.6 °F 61% 30.09 in 10.0 mi SSE 18.4 mph - N/A   Clear
6:15 AM 77.0 °F 62.6 °F 61% 30.10 in 10.0 mi SSE 17.3 mph - N/A   Clear
6:55 AM 77.0 °F 62.6 °F 61% 30.11 in 10.0 mi SSE 18.4 mph 24.2 mph N/A   Clear
7:15 AM 77.0 °F 62.6 °F 61% 30.11 in 10.0 mi SE 18.4 mph - N/A   Clear
7:35 AM 77.0 °F 64.4 °F 65% 30.12 in 10.0 mi SSE 17.3 mph - N/A   Clear
7:55 AM 77.0 °F 62.6 °F 61% 30.12 in 10.0 mi SSE 19.6 mph - N/A   Clear
8:15 AM 77.0 °F 62.6 °F 61% 30.13 in 9.0 mi SSE 18.4 mph - N/A   Clear
8:35 AM 77.0 °F 62.6 °F 61% 30.13 in 10.0 mi SE 18.4 mph - N/A   Clear
8:55 AM 78.8 °F 64.4 °F 61% 30.14 in 10.0 mi SE 17.3 mph - N/A   Partly Cloudy
9:15 AM 78.8 °F 64.4 °F 61% 30.15 in 10.0 mi SSE 17.3 mph - N/A   Partly Cloudy
9:35 AM 78.8 °F 64.4 °F 61% 30.15 in 10.0 mi SSE 19.6 mph - N/A   Clear
9:55 AM 78.8 °F 64.4 °F 61% 30.16 in 10.0 mi SSE 19.6 mph - N/A   Clear
10:15 AM 78.8 °F 64.4 °F 61% 30.15 in 10.0 mi SE 19.6 mph - N/A   Partly Cloudy
10:35 AM 78.8 °F 64.4 °F 61% 30.15 in 10.0 mi SE 17.3 mph - N/A   Clear
10:55 AM 78.8 °F 64.4 °F 61% 30.14 in - SE 19.6 mph - N/A   Partly Cloudy
11:15 AM 78.8 °F 64.4 °F 61% 30.14 in 10.0 mi SE 19.6 mph - N/A   Partly Cloudy
11:35 AM 78.8 °F 64.4 °F 61% 30.13 in 9.0 mi SSE 19.6 mph - N/A   Partly Cloudy
11:55 AM 78.8 °F 64.4 °F 61% 30.12 in 10.0 mi SE 19.6 mph - N/A   Partly Cloudy
12:15 PM 78.8 °F 64.4 °F 61% 30.11 in 9.0 mi SSE 18.4 mph - N/A   Clear
12:35 PM 78.8 °F 64.4 °F 61% 30.10 in 9.0 mi SE 18.4 mph - N/A   Clear
12:55 PM 78.8 °F 64.4 °F 61% 30.09 in 9.0 mi SE 17.3 mph - N/A   Partly Cloudy
1:15 PM 78.8 °F 64.4 °F 61% 30.07 in 10.0 mi SE 18.4 mph - N/A   Partly Cloudy
1:35 PM 78.8 °F 64.4 °F 61% 30.07 in 10.0 mi SE 19.6 mph - N/A   Clear
1:55 PM 78.8 °F 64.4 °F 61% 30.06 in 10.0 mi SE 20.7 mph - N/A   Partly Cloudy
2:15 PM 78.8 °F 64.4 °F 61% 30.06 in 10.0 mi SE 20.7 mph - N/A   Partly Cloudy
2:35 PM 78.8 °F 64.4 °F 61% 30.05 in 10.0 mi SE 19.6 mph - N/A   Partly Cloudy
2:55 PM 78.8 °F 62.6 °F 57% 30.05 in 10.0 mi SE 19.6 mph - N/A   Partly Cloudy
3:15 PM 78.8 °F 64.4 °F 61% 30.05 in 10.0 mi SE 20.7 mph - N/A   Partly Cloudy
3:35 PM 78.8 °F 64.4 °F 61% 30.05 in 10.0 mi SE 19.6 mph - N/A   Partly Cloudy
3:55 PM 78.8 °F 64.4 °F 61% 30.05 in 10.0 mi SE 19.6 mph - N/A   Scattered Clouds
4:15 PM 78.8 °F 62.6 °F 57% 30.05 in 10.0 mi SE 20.7 mph - N/A   Partly Cloudy
4:35 PM 78.8 °F 64.4 °F 61% 30.05 in 10.0 mi SE 20.7 mph - N/A   Partly Cloudy
4:55 PM 78.8 °F 62.6 °F 57% 30.05 in 10.0 mi SE 19.6 mph 25.3 mph N/A   Partly Cloudy
5:15 PM 78.8 °F 64.4 °F 61% 30.05 in 10.0 mi SE 23.0 mph - N/A   Partly Cloudy
5:35 PM 78.8 °F 62.6 °F 57% 30.05 in 10.0 mi SE 23.0 mph - N/A   Clear
5:55 PM 78.8 °F 62.6 °F 57% 30.05 in 10.0 mi SE 21.9 mph - N/A   Clear
6:15 PM 78.8 °F 62.6 °F 57% 30.06 in 10.0 mi SE 23.0 mph - N/A   Unknown
6:35 PM 78.8 °F 62.6 °F 57% 30.06 in - SE 20.7 mph - N/A   Unknown
6:55 PM 78.8 °F 64.4 °F 61% 30.07 in 10.0 mi SE 23.0 mph - N/A   Unknown
7:15 PM 78.8 °F 64.4 °F 61% 30.07 in 10.0 mi SE 23.0 mph - N/A   Scattered Clouds
7:35 PM 78.8 °F 64.4 °F 61% 30.07 in 10.0 mi SE 23.0 mph - N/A   Scattered Clouds
8:15 PM 78.8 °F 64.4 °F 61% 30.08 in 10.0 mi SE 20.7 mph - N/A   Partly Cloudy
8:35 PM 78.8 °F 64.4 °F 61% 30.08 in 10.0 mi SE 24.2 mph - N/A   Mostly Cloudy
8:55 PM 78.8 °F 64.4 °F 61% 30.08 in 10.0 mi SE 21.9 mph - N/A   Scattered Clouds
9:15 PM 78.8 °F 64.4 °F 61% 30.08 in 10.0 mi SE 24.2 mph - N/A   Mostly Cloudy
9:35 PM 78.8 °F 64.4 °F 61% 30.08 in 10.0 mi SE 24.2 mph - N/A   Scattered Clouds
9:55 PM 78.8 °F 64.4 °F 61% 30.08 in 10.0 mi SE 24.2 mph - N/A   Scattered Clouds
10:15 PM 78.8 °F 64.4 °F 61% 30.08 in 10.0 mi SE 23.0 mph - N/A   Mostly Cloudy
10:35 PM 78.8 °F 64.4 °F 61% 30.08 in 10.0 mi SE 24.2 mph - N/A   Mostly Cloudy
10:55 PM 78.8 °F 64.4 °F 61% 30.08 in 10.0 mi SSE 25.3 mph - N/A   Scattered Clouds
11:15 PM 78.8 °F 64.4 °F 61% 30.08 in 10.0 mi SE 25.3 mph - N/A   Scattered Clouds
11:35 PM 77.0 °F 64.4 °F 65% 30.08 in 10.0 mi SE 25.3 mph - N/A   Scattered Clouds
11:55 PM 78.8 °F 64.4 °F 61% 30.07 in 10.0 mi SE 25.3 mph - N/A   Partly Cloudy